Location: Cruquius
(52.3348°N, 4.6319°E)
Time: 20:11:38
(UTC+00:00)

Cosmos 489 Rocket - Pass Details

Date: 12 May 2021
Orbit: 952 x 983 km, 74.0° (Epoch: 21 June)

Event Time Altitude Azimuth Distance (km) Brightness Sun altitude
Rises 22:24:03 0° 333° (NNW) 3,646 9.2 -17.5°
Reaches altitude 10° 22:26:35 10° 332° (NNW) 2,699 8.1 -17.6°
Maximum altitude 22:32:48 76° 249° (WSW) 995 4.5 -17.9°
Enters shadow 22:36:09 29° 168° (SSE) 1,677 5.1 -18.0°
